Location: Cortos
(40.7190°N, 4.5893°W)
Time: 09:56:43
(UTC+00:00)

NOSS 0 Rocket - Pass Details

Date: 05 July 2020
Orbit: 934 x 955 km, 70.0° (Epoch: 07 August)

Event Time Altitude Azimuth Distance (km) Brightness Sun altitude
Exits shadow 22:07:31 32° 164° (SSE) 1,554 4.5 -19.2°
Maximum altitude 22:10:03 50° 108° (ESE) 1,173 4.1 -19.5°
Drops below altitude 10° 22:15:57 10° 35° (NE) 2,659 6.6 -20.1°
Sets 22:18:33 0° 30° (NNE) 3,610 7.4 -20.3°
